| time (UTC) | temp C | wind direction | speed KPH | gust KPH | rain 1hr cm | rain 24hr cm | rain mn cm | humidity % | barometer mb |
| 20260505183109 | 27 | 115 | 9.7 | 24.1 | 0.00 | 0.00 | 0.00 | 44 | 1015.0 |
| 20260505181546 | 26 | 234 | 9.7 | 27.4 | 0.00 | 0.00 | 0.00 | 43 | 1015.2 |
| 20260505180046 | 26 | 169 | 14.5 | 29.0 | 0.00 | 0.00 | 0.00 | 43 | 1015.2 |
| 20260505174547 | 26 | 200 | 9.7 | 27.4 | 0.00 | 0.00 | 0.00 | 46 | 1015.2 |
| 20260505173051 | 26 | 237 | 8.0 | 24.1 | 0.00 | 0.00 | 0.00 | 48 | 1015.2 |
| 20260505171551 | 25 | 169 | 11.3 | 25.7 | 0.00 | 0.00 | 0.00 | 48 | 1015.6 |
| 20260505170044 | 26 | 209 | 8.0 | 29.0 | 0.00 | 0.00 | 0.00 | 48 | 1015.8 |
| 20260505164546 | 25 | 158 | 12.9 | 25.7 | 0.00 | 0.00 | 0.00 | 49 | 1015.9 |
| 20260505163044 | 25 | 184 | 8.0 | 32.2 | 0.00 | 0.00 | 0.00 | 51 | 1016.0 |
| 20260505161551 | 25 | 163 | 6.4 | 22.5 | 0.00 | 0.00 | 0.00 | 52 | 1016.0 |
| 20260505153049 | 23 | 127 | 9.7 | 25.7 | 0.00 | 0.00 | 0.00 | 55 | 1016.2 |
| 20260505151545 | 23 | 159 | 9.7 | 22.5 | 0.00 | 0.00 | 0.00 | 57 | 1016.3 |
| 20260505124548 | 17 | 202 | 8.0 | 17.7 | 0.00 | 0.00 | 0.00 | 72 | 1016.8 |
| 20260505123044 | 17 | 181 | 4.8 | 19.3 | 0.00 | 0.00 | 0.00 | 74 | 1016.9 |
| 20260505121541 | 16 | 145 | 8.0 | 22.5 | 0.00 | 0.00 | 0.00 | 75 | 1016.6 |
| 20260505120104 | 16 | 186 | 8.0 | 19.3 | 0.00 | 0.00 | 0.00 | 76 | 1016.7 |
| 20260505114544 | 15 | 120 | 8.0 | 12.9 | 0.00 | 0.00 | 0.00 | 77 | 1016.6 |
| 20260505113044 | 15 | 167 | 4.8 | 11.3 | 0.00 | 0.00 | 0.00 | 77 | 1016.4 |
| 20260505111546 | 15 | 163 | 6.4 | 14.5 | 0.00 | 0.00 | 0.00 | 78 | 1016.4 |
| 20260505101546 | 14 | 143 | 6.4 | 14.5 | 0.00 | 0.00 | 0.00 | 79 | 1015.7 |
| 20260505100043 | 14 | 125 | 4.8 | 12.9 | 0.00 | 0.00 | 0.00 | 78 | 1015.6 |
| 20260505094545 | 14 | 188 | 3.2 | 12.9 | 0.00 | 0.00 | 0.00 | 78 | 1015.4 |
| 20260505093044 | 14 | 112 | 3.2 | 14.5 | 0.00 | 0.00 | 0.00 | 78 | 1015.3 |
| 20260505091543 | 15 | 90 | 4.8 | 12.9 | 0.00 | 0.00 | 0.00 | 77 | 1015.3 |
| 20260505090047 | 15 | 142 | 4.8 | 14.5 | 0.00 | 0.00 | 0.00 | 76 | 1015.2 |
| 20260505084545 | 15 | 178 | 6.4 | 16.1 | 0.00 | 0.00 | 0.00 | 75 | 1015.2 |
| 20260505083043 | 15 | 124 | 6.4 | 17.7 | 0.00 | 0.00 | 0.00 | 74 | 1015.2 |
| 20260505081543 | 16 | 180 | 3.2 | 11.3 | 0.00 | 0.00 | 0.00 | 73 | 1015.1 |
| 20260505080046 | 16 | 195 | 4.8 | 16.1 | 0.00 | 0.00 | 0.00 | 73 | 1015.0 |
| 20260505074551 | 16 | 132 | 4.8 | 12.9 | 0.00 | 0.00 | 0.00 | 72 | 1015.0 |
| 20260505073059 | 16 | 151 | 3.2 | 16.1 | 0.00 | 0.00 | 0.00 | 71 | 1014.9 |
| 20260505071540 | 16 | 127 | 3.2 | 16.1 | 0.00 | 0.00 | 0.00 | 70 | 1014.8 |
| 20260505070049 | 16 | 355 | 6.4 | 14.5 | 0.00 | 0.00 | 0.00 | 70 | 1014.6 |
| 20260505064546 | 17 | 135 | 4.8 | 16.1 | 0.00 | 0.00 | 0.00 | 69 | 1014.6 |
| 20260505063045 | 17 | 101 | 8.0 | 20.9 | 0.00 | 0.00 | 0.00 | 68 | 1014.7 |
| 20260505061558 | 17 | 216 | 4.8 | 22.5 | 0.00 | 0.00 | 0.00 | 68 | 1014.7 |
| 20260505060049 | 17 | 171 | 4.8 | 17.7 | 0.00 | 0.00 | 0.00 | 68 | 1014.9 |
| 20260505054607 | 17 | 190 | 6.4 | 16.1 | 0.00 | 0.00 | 0.00 | 68 | 1014.9 |
| 20260505053100 | 17 | 184 | 4.8 | 16.1 | 0.00 | 0.00 | 0.00 | 67 | 1015.2 |
| 20260505051542 | 17 | 188 | 8.0 | 19.3 | 0.00 | 0.00 | 0.00 | 67 | 1015.0 |
| 20260505041545 | 17 | 107 | 8.0 | 24.1 | 0.00 | 0.00 | 0.00 | 67 | 1015.0 |
| 20260505040044 | 18 | 189 | 6.4 | 24.1 | 0.00 | 0.00 | 0.00 | 67 | 1015.0 |
| 20260505034545 | 18 | 164 | 6.4 | 22.5 | 0.00 | 0.00 | 0.00 | 67 | 1014.9 |
| 20260505033048 | 18 | 184 | 9.7 | 24.1 | 0.00 | 0.00 | 0.00 | 67 | 1014.9 |
| 20260505031602 | 18 | 146 | 11.3 | 20.9 | 0.00 | 0.00 | 0.00 | 66 | 1014.9 |
| 20260505030044 | 18 | 135 | 11.3 | 29.0 | 0.00 | 0.00 | 0.00 | 66 | 1014.9 |
| 20260505024541 | 18 | 112 | 12.9 | 30.6 | 0.00 | 0.00 | 0.00 | 67 | 1014.9 |
| 20260505023052 | 18 | 121 | 11.3 | 30.6 | 0.00 | 0.00 | 0.00 | 67 | 1014.9 |
| 20260505021545 | 18 | 174 | 9.7 | 30.6 | 0.00 | 0.00 | 0.00 | 67 | 1014.6 |
| 20260505020045 | 19 | 153 | 14.5 | 27.4 | 0.00 | 0.00 | 0.00 | 67 | 1014.7 |
| 20260505014543 | 19 | 134 | 9.7 | 25.7 | 0.00 | 0.00 | 0.00 | 67 | 1014.6 |
| 20260505013047 | 19 | 140 | 12.9 | 35.4 | 0.00 | 0.00 | 0.00 | 66 | 1014.5 |
| 20260505011547 | 20 | 130 | 12.9 | 20.9 | 0.00 | 0.00 | 0.00 | 66 | 1014.2 |
| 20260505010046 | 20 | 117 | 9.7 | 29.0 | 0.00 | 0.00 | 0.00 | 65 | 1014.0 |
| 20260505004553 | 20 | 191 | 9.7 | 32.2 | 0.00 | 0.00 | 0.00 | 65 | 1013.8 |
| 20260505003044 | 20 | 101 | 11.3 | 32.2 | 0.00 | 0.00 | 0.00 | 64 | 1013.5 |
| 20260505001540 | 20 | 119 | 9.7 | 20.9 | 0.00 | 0.00 | 0.00 | 63 | 1013.5 |
| 20260505000105 | 21 | 126 | 9.7 | 32.2 | 0.00 | 0.00 | 0.00 | 62 | 1013.2 |
| 20260504234545 | 21 | 163 | 9.7 | 24.1 | 0.00 | 0.00 | 0.00 | 60 | 1013.1 |
| 20260504233044 | 21 | 148 | 9.7 | 29.0 | 0.00 | 0.00 | 0.00 | 58 | 1012.9 |
| 20260504231542 | 22 | 143 | 6.4 | 30.6 | 0.00 | 0.00 | 0.00 | 55 | 1012.6 |
| 20260504230100 | 23 | 136 | 9.7 | 19.3 | 0.00 | 0.00 | 0.00 | 41 | 1012.4 |
| 20260504224539 | 24 | 221 | 6.4 | 17.7 | 0.00 | 0.00 | 0.00 | 41 | 1012.3 |
| 20260504223046 | 24 | 148 | 8.0 | 25.7 | 0.00 | 0.00 | 0.00 | 40 | 1012.2 |
| 20260504221557 | 25 | 79 | 8.0 | 22.5 | 0.00 | 0.00 | 0.00 | 39 | 1012.3 |
| 20260504220044 | 25 | 116 | 6.4 | 16.1 | 0.00 | 0.00 | 0.00 | 40 | 1012.2 |
| 20260504214540 | 25 | 160 | 6.4 | 20.9 | 0.00 | 0.00 | 0.00 | 39 | 1012.3 |
| 20260504213047 | 25 | 115 | 8.0 | 29.0 | 0.00 | 0.00 | 0.00 | 39 | 1012.5 |
| 20260504211548 | 25 | 108 | 8.0 | 22.5 | 0.00 | 0.00 | 0.00 | 38 | 1012.5 |
| 20260504210052 | 25 | 144 | 9.7 | 22.5 | 0.00 | 0.00 | 0.00 | 39 | 1012.6 |
| 20260504204541 | 25 | 82 | 8.0 | 19.3 | 0.00 | 0.00 | 0.00 | 38 | 1012.7 |
| 20260504203042 | 25 | 215 | 8.0 | 20.9 | 0.00 | 0.00 | 0.00 | 38 | 1012.9 |
| 20260504201540 | 24 | 188 | 16.1 | 27.4 | 0.00 | 0.00 | 0.00 | 39 | 1012.8 |
| 20260504200046 | 24 | 204 | 9.7 | 25.7 | 0.00 | 0.00 | 0.00 | 40 | 1012.9 |
| 20260504194543 | 25 | 213 | 8.0 | 25.7 | 0.00 | 0.00 | 0.00 | 39 | 1013.1 |
| 20260504193044 | 24 | 117 | 9.7 | 24.1 | 0.00 | 0.00 | 0.00 | 40 | 1013.3 |
| 20260504191543 | 24 | 217 | 14.5 | 30.6 | 0.00 | 0.00 | 0.00 | 41 | 1013.4 |
| 20260504190049 | 23 | 217 | 11.3 | 32.2 | 0.00 | 0.00 | 0.00 | 43 | 1013.7 |
| 20260504184546 | 23 | 130 | 14.5 | 37.0 | 0.00 | 0.00 | 0.00 | 43 | 1013.9 |